Location: Godiavel Galaoual
(15.2485°N, 12.6604°W)
Time: 10:09:04
(UTC+00:00)

Hubble Space Telescope - Pass Details

Date: 21 May 2021
Orbit: 535 x 539 km, 28.5° (Epoch: 17 June)

Event Time Altitude Azimuth Distance (km) Brightness Sun altitude
Exits shadow 04:56:07 20° 311° (NW) 1,282 2.5 -19.3°
Maximum altitude 04:57:36 24° 343° (NNW) 1,127 2.5 -19.0°
Drops below altitude 10° 05:00:58 10° 38° (NE) 1,775 4.4 -18.3°
Sets 05:03:33 0° 53° (NE) 2,664 5.9 -17.8°
